DHK595 ESSA-LPPT

Flight info

Callsign DHK595
Flight time N/A
Altitude 34000
Route PETEV N872 ELPAX DCT KULUD Z703 ALS N872 PAM/N0475F350 N872 CIV/N0473F340 DCT MEDIL/N0475F350 DCT KOVIN DCT NIDUV DCT KIHVI UN872 ERIGA UZ218 FUJTI DCT ATLEN DCT ABUPI DCT XAMAX
Aircraft B77L/H-SDE1E2E3FGHIJ2J3J4J5M1RWXY/LB1D1

Departure

Time 2026-05-07 09:31
Airport Stockholm-Arlanda Airport (ESSA)

Arrival

Time N/A
Airport Lisbon Humberto Delgado Airport (LPPT)
Time Latitude Longitude Altitude Speed Heading
2026-05-07 08:57 59.63938 17.92802 119 ft 0 kts 207°
2026-05-07 09:16 59.63952 17.92817 114 ft 2 kts 207°
2026-05-07 09:16 59.63967 17.92832 114 ft 2 kts 207°
2026-05-07 09:16 59.63981 17.92848 114 ft 2 kts 221°
2026-05-07 09:17 59.63991 17.92873 115 ft 2 kts 240°
2026-05-07 09:17 59.63998 17.92902 115 ft 2 kts 266°
2026-05-07 09:17 59.63997 17.92929 115 ft 0 kts 296°
2026-05-07 09:21 59.63997 17.92927 115 ft 1 kts 296°
2026-05-07 09:21 59.64001 17.92910 115 ft 2 kts 296°
2026-05-07 09:21 59.64017 17.92854 114 ft 9 kts 303°
2026-05-07 09:22 59.64077 17.92814 116 ft 10 kts
2026-05-07 09:22 59.64134 17.92755 115 ft 10 kts 297°
2026-05-07 09:22 59.64166 17.92625 115 ft 11 kts 297°
2026-05-07 09:22 59.64200 17.92494 115 ft 11 kts 297°
2026-05-07 09:23 59.64235 17.92362 116 ft 11 kts 297°
2026-05-07 09:23 59.64269 17.92226 114 ft 11 kts 296°
2026-05-07 09:23 59.64304 17.92089 116 ft 11 kts 298°
2026-05-07 09:23 59.64344 17.91957 113 ft 11 kts 311°
2026-05-07 09:24 59.64419 17.91935 115 ft 14 kts 10°
2026-05-07 09:24 59.64536 17.91977 115 ft 18 kts 10°
2026-05-07 09:24 59.64662 17.92023 115 ft 18 kts 10°
2026-05-07 09:24 59.64788 17.92069 117 ft 18 kts 11°
2026-05-07 09:25 59.64915 17.92116 118 ft 18 kts 11°
2026-05-07 09:25 59.65041 17.92160 118 ft 18 kts 11°
2026-05-07 09:25 59.65168 17.92205 118 ft 18 kts 10°
2026-05-07 09:25 59.65294 17.92252 121 ft 18 kts 11°
2026-05-07 09:26 59.65419 17.92296 121 ft 18 kts 10°
2026-05-07 09:26 59.65546 17.92342 121 ft 18 kts 10°
2026-05-07 09:26 59.65673 17.92388 121 ft 18 kts 10°
2026-05-07 09:26 59.65798 17.92434 124 ft 18 kts 10°
2026-05-07 09:27 59.65925 17.92480 123 ft 18 kts 10°
2026-05-07 09:27 59.66052 17.92526 124 ft 18 kts 10°
2026-05-07 09:27 59.66304 17.92617 128 ft 18 kts 11°
2026-05-07 09:28 59.66418 17.92658 127 ft 14 kts
2026-05-07 09:28 59.66509 17.92625 126 ft 12 kts 340°
2026-05-07 09:28 59.66525 17.92614 126 ft 0 kts 340°
2026-05-07 09:29 59.66541 17.92602 128 ft 8 kts 340°
2026-05-07 09:29 59.66597 17.92552 126 ft 9 kts 322°
2026-05-07 09:29 59.66617 17.92440 128 ft 10 kts 262°
2026-05-07 09:29 59.66571 17.92356 125 ft 8 kts 193°
2026-05-07 09:30 59.66561 17.92352 127 ft 0 kts 191°
2026-05-07 09:30 59.66427 17.92303 126 ft 56 kts 190°
2026-05-07 09:30 59.65798 17.92072 123 ft 125 kts 191°
2026-05-07 09:30 59.64754 17.91678 163 ft 173 kts 191°
2026-05-07 09:31 59.63488 17.91227 478 ft 194 kts 189°
2026-05-07 09:31 59.62152 17.90757 1079 ft 202 kts 195°
2026-05-07 09:31 59.60971 17.89224 1677 ft 209 kts 233°
2026-05-07 09:31 59.60200 17.86742 2330 ft 215 kts 239°
2026-05-07 09:32 59.59451 17.84193 3048 ft 219 kts 239°
2026-05-07 09:32 59.58684 17.81567 3843 ft 223 kts 240°
2026-05-07 09:32 59.57923 17.78720 4262 ft 246 kts 243°
2026-05-07 09:32 59.57138 17.75681 5033 ft 254 kts 243°
2026-05-07 09:33 59.56149 17.72789 5809 ft 256 kts 228°
2026-05-07 09:33 59.54862 17.70291 6667 ft 262 kts 224°
2026-05-07 09:33 59.53504 17.67861 7482 ft 265 kts 223°
2026-05-07 09:33 59.52136 17.65447 8358 ft 268 kts 224°
2026-05-07 09:34 59.50750 17.62979 9258 ft 269 kts 224°
2026-05-07 09:34 59.49355 17.60484 10180 ft 270 kts 225°
2026-05-07 09:34 59.47940 17.57928 10746 ft 284 kts 225°
2026-05-07 09:34 59.46434 17.55183 10967 ft 311 kts 225°
2026-05-07 09:35 59.44784 17.52162 11185 ft 337 kts 225°
2026-05-07 09:35 59.43024 17.48936 11736 ft 351 kts 225°
2026-05-07 09:35 59.41236 17.45662 12654 ft 356 kts 226°
2026-05-07 09:35 59.39407 17.42312 13683 ft 359 kts 226°
2026-05-07 09:36 59.37585 17.38978 14611 ft 363 kts 226°
2026-05-07 09:36 59.35719 17.35562 15460 ft 367 kts 226°
2026-05-07 09:36 59.33834 17.32114 16321 ft 372 kts 226°
2026-05-07 09:36 59.31944 17.28658 17164 ft 377 kts 226°
2026-05-07 09:37 59.30014 17.25135 18020 ft 381 kts 226°
2026-05-07 09:37 59.28059 17.21571 18797 ft 385 kts 226°
2026-05-07 09:37 59.26084 17.17973 19567 ft 388 kts 226°
2026-05-07 09:37 59.24121 17.14404 20342 ft 390 kts 226°
2026-05-07 09:38 59.22112 17.10759 21096 ft 393 kts 226°
2026-05-07 09:38 59.20119 17.07148 21824 ft 396 kts 226°
2026-05-07 09:38 59.18088 17.03475 22561 ft 400 kts 226°
2026-05-07 09:38 59.16040 16.99777 23284 ft 403 kts 226°
2026-05-07 09:39 59.13963 16.96035 23923 ft 407 kts 226°
2026-05-07 09:39 59.11874 16.92278 24507 ft 410 kts 226°
2026-05-07 09:39 59.09794 16.88541 25091 ft 413 kts 226°
2026-05-07 09:39 59.07671 16.84733 25670 ft 416 kts 226°
2026-05-07 09:40 59.05529 16.80899 26238 ft 419 kts 226°
2026-05-07 09:40 59.03372 16.77046 26794 ft 422 kts 226°
2026-05-07 09:40 59.01196 16.73165 27306 ft 426 kts 226°
2026-05-07 09:40 58.99024 16.69299 27840 ft 429 kts 226°
2026-05-07 09:41 58.96811 16.65366 28360 ft 432 kts 225°
2026-05-07 09:41 58.94569 16.61390 28838 ft 435 kts 225°
2026-05-07 09:41 58.92345 16.57451 29301 ft 439 kts 225°
2026-05-07 09:41 58.90077 16.53444 29736 ft 442 kts 225°
2026-05-07 09:42 58.87795 16.49418 30164 ft 444 kts 225°
2026-05-07 09:42 58.85534 16.45439 30591 ft 444 kts 225°
2026-05-07 09:42 58.83238 16.41407 31068 ft 444 kts 225°
2026-05-07 09:42 58.80941 16.37380 31505 ft 443 kts 225°
2026-05-07 09:43 58.78677 16.33418 31944 ft 444 kts 225°
2026-05-07 09:43 58.76385 16.29413 32390 ft 443 kts 225°
2026-05-07 09:43 58.74101 16.25427 32805 ft 443 kts 225°
2026-05-07 09:43 58.71824 16.21463 33218 ft 444 kts 225°
2026-05-07 09:44 58.69529 16.17474 33628 ft 444 kts 225°
2026-05-07 09:44 58.67230 16.13486 34030 ft 444 kts 225°
2026-05-07 09:44 58.64950 16.09539 34028 ft 446 kts 225°
2026-05-07 09:45 58.60342 16.01581 34034 ft 444 kts 225°
2026-05-07 09:45 58.55748 15.93679 34058 ft 445 kts 225°
2026-05-07 09:46 58.51151 15.85801 34045 ft 446 kts 225°
2026-05-07 09:46 58.46509 15.77871 34048 ft 446 kts 225°
2026-05-07 09:47 58.41860 15.69962 34048 ft 447 kts 225°
2026-05-07 09:47 58.37226 15.62106 34043 ft 448 kts 225°
2026-05-07 09:48 58.32547 15.54204 34048 ft 449 kts 225°
2026-05-07 09:48 58.27873 15.46339 34047 ft 449 kts 225°
2026-05-07 09:49 58.23203 15.38508 34050 ft 450 kts 225°
2026-05-07 09:49 58.18484 15.30626 34038 ft 451 kts 224°
2026-05-07 09:50 58.13767 15.22776 34038 ft 451 kts 224°
2026-05-07 09:50 58.09046 15.14946 34038 ft 451 kts 224°
2026-05-07 09:51 58.04338 15.07169 34042 ft 452 kts 224°
2026-05-07 09:51 57.99596 14.99362 34042 ft 452 kts 224°
2026-05-07 09:52 57.95633 14.92860 34043 ft 452 kts 224°
2026-05-07 09:52 57.90896 14.85114 34042 ft 453 kts 224°
2026-05-07 09:53 57.86115 14.77324 34040 ft 454 kts 224°
2026-05-07 09:53 57.81362 14.69609 34054 ft 454 kts 224°
2026-05-07 09:54 57.76578 14.61872 34033 ft 455 kts 224°
2026-05-07 09:54 57.71786 14.54149 34046 ft 455 kts 224°
2026-05-07 09:55 57.66952 14.46387 34047 ft 456 kts 224°
2026-05-07 09:55 57.62138 14.38686 34051 ft 457 kts 224°
2026-05-07 09:56 57.57296 14.30968 34044 ft 457 kts 224°
2026-05-07 09:56 57.52468 14.23298 34044 ft 458 kts 223°
2026-05-07 09:57 57.47632 14.15644 34051 ft 459 kts 223°
2026-05-07 09:57 57.42750 14.07945 34044 ft 459 kts 223°
2026-05-07 09:58 57.37898 14.00323 34050 ft 459 kts 223°
2026-05-07 09:58 57.32994 13.92646 34043 ft 460 kts 223°
2026-05-07 09:59 57.28116 13.85035 34046 ft 460 kts 223°
2026-05-07 09:59 57.23196 13.77388 34057 ft 461 kts 223°
2026-05-07 10:00 57.18295 13.69799 34043 ft 461 kts 223°
2026-05-07 10:00 57.13358 13.62181 34052 ft 462 kts 223°
2026-05-07 10:01 57.08450 13.54634 34054 ft 462 kts 223°
2026-05-07 10:01 57.03487 13.47025 34046 ft 463 kts 223°
2026-05-07 10:02 56.98547 13.39488 34058 ft 464 kts 222°
2026-05-07 10:02 56.93569 13.31917 34058 ft 465 kts 222°
2026-05-07 10:03 56.88590 13.24370 34067 ft 465 kts 222°
2026-05-07 10:03 56.83613 13.16852 34076 ft 465 kts 222°
2026-05-07 10:04 56.78608 13.09323 34091 ft 465 kts 222°
2026-05-07 10:04 56.73611 13.01829 34102 ft 464 kts 221°
2026-05-07 10:05 56.68650 12.94414 34105 ft 464 kts 221°
2026-05-07 10:05 56.63634 12.86947 34106 ft 464 kts 221°
2026-05-07 10:06 56.58659 12.79564 34102 ft 463 kts 221°
2026-05-07 10:06 56.53674 12.72194 34099 ft 463 kts 221°
2026-05-07 10:07 56.48670 12.64820 34093 ft 463 kts 221°
2026-05-07 10:07 56.43655 12.57457 34087 ft 463 kts 221°
2026-05-07 10:08 56.38672 12.50167 34076 ft 464 kts 221°
2026-05-07 10:08 56.33641 12.42831 34086 ft 464 kts 221°
2026-05-07 10:09 56.28640 12.35564 34088 ft 464 kts 221°
2026-05-07 10:09 56.23594 12.28256 34092 ft 464 kts 220°
2026-05-07 10:10 56.18577 12.21015 34093 ft 464 kts 220°
2026-05-07 10:10 56.13533 12.13758 34091 ft 464 kts 220°
2026-05-07 10:11 56.08533 12.06366 34088 ft 464 kts 222°
2026-05-07 10:11 56.03646 11.98879 34092 ft 464 kts 222°
2026-05-07 10:12 55.98829 11.91277 34093 ft 463 kts 226°
2026-05-07 10:12 55.94345 11.82978 34094 ft 463 kts 227°
2026-05-07 10:13 55.89868 11.74689 34095 ft 463 kts 227°
2026-05-07 10:13 55.85392 11.66484 34094 ft 463 kts 227°
2026-05-07 10:14 55.80891 11.58282 34090 ft 463 kts 226°
2026-05-07 10:14 55.76402 11.50129 34093 ft 464 kts 226°
2026-05-07 10:15 55.71894 11.41964 34093 ft 464 kts 226°
2026-05-07 10:15 55.67361 11.33790 34094 ft 464 kts 226°
2026-05-07 10:16 55.62829 11.25648 34094 ft 464 kts 226°
2026-05-07 10:16 55.58302 11.17540 34097 ft 464 kts 226°
2026-05-07 10:17 55.53781 11.09465 34093 ft 463 kts 226°
2026-05-07 10:17 55.49224 11.01358 34099 ft 463 kts 226°
2026-05-07 10:18 55.44705 10.93344 34096 ft 463 kts 226°
2026-05-07 10:18 55.40143 10.85281 34101 ft 463 kts 225°
2026-05-07 10:19 55.35607 10.77292 34105 ft 463 kts 225°
2026-05-07 10:19 55.31036 10.69270 34098 ft 463 kts 225°
2026-05-07 10:20 55.26481 10.61303 34101 ft 464 kts 225°
2026-05-07 10:20 55.21920 10.53353 34099 ft 464 kts 225°
2026-05-07 10:21 55.17322 10.45364 34099 ft 464 kts 225°
2026-05-07 10:21 55.12743 10.37439 34091 ft 464 kts 225°
2026-05-07 10:22 55.08140 10.29496 34096 ft 464 kts 225°
2026-05-07 10:22 55.03570 10.21636 34097 ft 464 kts 225°
2026-05-07 10:23 54.98951 10.13719 34099 ft 463 kts 225°
2026-05-07 10:23 54.94376 10.05901 34097 ft 463 kts 224°
2026-05-07 10:24 54.89807 9.97986 34099 ft 463 kts 228°
2026-05-07 10:24 54.85653 9.89486 34099 ft 463 kts 230°
2026-05-07 10:25 54.81684 9.80743 34117 ft 462 kts 234°
2026-05-07 10:25 54.77991 9.71591 34112 ft 463 kts 234°
2026-05-07 10:26 54.74275 9.62433 34087 ft 463 kts 234°
2026-05-07 10:26 54.70562 9.53374 34071 ft 464 kts 234°
2026-05-07 10:27 54.66812 9.44260 34074 ft 464 kts 234°
2026-05-07 10:27 54.63078 9.35235 34071 ft 464 kts 234°
2026-05-07 10:28 54.59293 9.26183 34070 ft 463 kts 233°
2026-05-07 10:28 54.55533 9.17229 34087 ft 463 kts 233°
2026-05-07 10:29 54.51738 9.08214 34068 ft 463 kts 233°
2026-05-07 10:29 54.47961 8.99269 34061 ft 463 kts 233°
2026-05-07 10:30 54.42266 8.85835 34069 ft 462 kts 233°
2026-05-07 10:30 54.38479 8.76945 34068 ft 463 kts 233°
2026-05-07 10:31 54.34669 8.68032 34093 ft 463 kts 233°
2026-05-07 10:31 54.30867 8.59172 34071 ft 463 kts 233°
2026-05-07 10:32 54.27044 8.50284 34072 ft 463 kts 233°
2026-05-07 10:32 54.23208 8.41489 34074 ft 463 kts 230°
2026-05-07 10:33 54.18739 8.33569 34098 ft 462 kts 222°
2026-05-07 10:33 54.14057 8.26122 34081 ft 462 kts 223°
2026-05-07 10:34 54.09373 8.18560 34078 ft 463 kts 223°
2026-05-07 10:34 54.04718 8.11020 34083 ft 463 kts 223°
2026-05-07 10:35 54.00036 8.03442 34087 ft 463 kts 223°
2026-05-07 10:35 53.95354 7.95921 34081 ft 463 kts 223°
2026-05-07 10:36 53.90671 7.88471 34077 ft 463 kts 223°
2026-05-07 10:36 53.85954 7.80988 34090 ft 463 kts 223°
2026-05-07 10:37 53.81276 7.73583 34070 ft 463 kts 222°
2026-05-07 10:37 53.76578 7.66169 34065 ft 463 kts 222°
2026-05-07 10:38 53.71854 7.58735 34067 ft 463 kts 222°
2026-05-07 10:38 53.67933 7.52583 34086 ft 463 kts 222°
2026-05-07 10:39 53.62426 7.43971 34062 ft 463 kts 222°
2026-05-07 10:39 53.57719 7.36635 34079 ft 463 kts 222°
2026-05-07 10:40 53.53763 7.30489 34068 ft 462 kts 222°
2026-05-07 10:40 53.49025 7.23148 34071 ft 463 kts 222°
2026-05-07 10:41 53.44298 7.15845 34069 ft 463 kts 222°
2026-05-07 10:41 53.39572 7.08566 34078 ft 463 kts 222°
2026-05-07 10:42 53.34809 7.01253 34075 ft 463 kts 222°
2026-05-07 10:42 53.30412 6.93458 34088 ft 462 kts 229°
2026-05-07 10:43 53.26189 6.85299 34063 ft 463 kts 228°
2026-05-07 10:43 53.21968 6.77241 34069 ft 463 kts 228°
2026-05-07 10:44 53.17702 6.69161 34078 ft 462 kts 228°
2026-05-07 10:44 53.13493 6.61105 34073 ft 462 kts 229°
2026-05-07 10:45 53.09345 6.52966 34077 ft 462 kts 229°
2026-05-07 10:45 53.05188 6.44826 34075 ft 462 kts 229°
2026-05-07 10:46 53.01019 6.36720 34067 ft 462 kts 229°
2026-05-07 10:46 52.96814 6.28580 34058 ft 462 kts 229°
2026-05-07 10:47 52.92634 6.20519 34053 ft 462 kts 229°
2026-05-07 10:47 52.88443 6.12462 34047 ft 462 kts 229°
2026-05-07 10:48 52.84253 6.04428 34049 ft 462 kts 228°
2026-05-07 10:48 52.80040 5.96380 34053 ft 462 kts 228°
2026-05-07 10:49 52.75833 5.88363 34048 ft 463 kts 228°
2026-05-07 10:49 52.71615 5.80358 34062 ft 464 kts 228°
2026-05-07 10:50 52.67371 5.72352 34059 ft 464 kts 228°
2026-05-07 10:50 52.63105 5.64329 34072 ft 464 kts 228°
2026-05-07 10:51 52.58846 5.56343 34079 ft 465 kts 228°
2026-05-07 10:51 52.54584 5.48372 34073 ft 466 kts 228°
2026-05-07 10:52 52.50285 5.40351 34076 ft 467 kts 227°
2026-05-07 10:52 52.45975 5.32340 34078 ft 468 kts 227°
2026-05-07 10:53 52.41691 5.24373 34073 ft 469 kts 227°
2026-05-07 10:53 52.37374 5.16362 34074 ft 468 kts 227°
2026-05-07 10:54 52.32575 5.09241 34077 ft 464 kts 215°
2026-05-07 10:54 52.27060 5.03911 34079 ft 462 kts 205°
2026-05-07 10:55 52.21259 4.99389 34075 ft 462 kts 205°
2026-05-07 10:55 52.15461 4.94864 34075 ft 464 kts 205°
2026-05-07 10:56 52.09636 4.90270 34073 ft 465 kts 205°
2026-05-07 10:56 52.03815 4.85673 34064 ft 466 kts 205°
2026-05-07 10:57 51.97988 4.81086 34072 ft 466 kts 205°
2026-05-07 10:57 51.92122 4.76483 34072 ft 467 kts 205°
2026-05-07 10:58 51.86297 4.71901 34072 ft 469 kts 205°
2026-05-07 10:58 51.80398 4.67285 34070 ft 469 kts 205°
2026-05-07 10:59 51.74523 4.62753 34070 ft 469 kts 205°
2026-05-07 10:59 51.68611 4.58196 34057 ft 469 kts 205°
2026-05-07 11:00 51.62732 4.53661 34063 ft 469 kts 205°
2026-05-07 11:00 51.56878 4.49129 34068 ft 468 kts 205°
2026-05-07 11:01 51.50998 4.44591 34072 ft 468 kts 205°
2026-05-07 11:01 51.45152 4.40093 34077 ft 467 kts 205°
2026-05-07 11:02 51.39263 4.35585 34080 ft 468 kts 205°
2026-05-07 11:02 51.33382 4.31200 34075 ft 468 kts 205°
2026-05-07 11:03 51.27484 4.26767 34413 ft 470 kts 205°
2026-05-07 11:03 51.24521 4.24501 34803 ft 469 kts 205°
2026-05-07 11:03 51.21576 4.22251 35086 ft 471 kts 205°
2026-05-07 11:04 51.15578 4.17833 35059 ft 474 kts 201°
2026-05-07 11:04 51.09370 4.14422 35063 ft 467 kts 198°
2026-05-07 11:05 51.03251 4.11146 35066 ft 464 kts 199°
2026-05-07 11:05 50.97175 4.07845 35063 ft 460 kts 199°
2026-05-07 11:06 50.91117 4.04546 35072 ft 461 kts 199°
2026-05-07 11:06 50.85094 4.01067 35069 ft 462 kts 201°
2026-05-07 11:07 50.79143 3.97220 35064 ft 461 kts 202°
2026-05-07 11:07 50.73227 3.93393 35059 ft 460 kts 202°
2026-05-07 11:08 50.67289 3.89594 35068 ft 463 kts 202°
2026-05-07 11:08 50.61324 3.85795 35066 ft 461 kts 202°
2026-05-07 11:09 50.55395 3.81993 35076 ft 461 kts 202°
2026-05-07 11:09 50.49498 3.77953 35061 ft 461 kts 204°
2026-05-07 11:10 50.43646 3.73919 35055 ft 463 kts 203°
2026-05-07 11:10 50.37748 3.69905 35075 ft 461 kts 203°
2026-05-07 11:11 50.31826 3.65895 35076 ft 466 kts 203°
2026-05-07 11:11 50.25823 3.61840 35058 ft 470 kts 203°
2026-05-07 11:12 50.19826 3.57798 35064 ft 472 kts 203°
2026-05-07 11:12 50.13799 3.53745 35061 ft 473 kts 203°
2026-05-07 11:13 50.07728 3.49674 35051 ft 474 kts 203°
2026-05-07 11:13 50.01648 3.45609 35065 ft 476 kts 203°
2026-05-07 11:14 49.95596 3.41573 35064 ft 472 kts 203°
2026-05-07 11:14 49.89566 3.37562 35063 ft 468 kts 203°
2026-05-07 11:15 49.83604 3.33609 35044 ft 465 kts 203°
2026-05-07 11:15 49.77648 3.29669 35069 ft 465 kts 203°
2026-05-07 11:16 49.71710 3.25751 35060 ft 466 kts 203°
2026-05-07 11:16 49.65710 3.21803 35063 ft 468 kts 203°
2026-05-07 11:17 49.59725 3.17874 35062 ft 469 kts 203°
2026-05-07 11:17 49.53714 3.13938 35059 ft 470 kts 204°
2026-05-07 11:18 49.50841 3.11553 35062 ft 469 kts 215°
2026-05-07 11:18 49.48337 3.08320 35066 ft 469 kts 225°
2026-05-07 11:18 49.44554 3.00210 35068 ft 470 kts 240°
2026-05-07 11:19 49.41400 2.91375 35056 ft 471 kts 240°
2026-05-07 11:19 49.38189 2.82630 35063 ft 471 kts 240°
2026-05-07 11:20 49.34926 2.73934 35054 ft 472 kts 239°
2026-05-07 11:20 49.31741 2.65124 35073 ft 471 kts 241°
2026-05-07 11:21 49.28663 2.56276 35063 ft 471 kts 242°
2026-05-07 11:21 49.25545 2.47396 35068 ft 471 kts 241°
2026-05-07 11:22 49.22431 2.38616 35063 ft 470 kts 241°
2026-05-07 11:22 49.19309 2.29858 35055 ft 470 kts 240°
2026-05-07 11:23 49.16107 2.21157 35049 ft 470 kts 240°
2026-05-07 11:23 49.12874 2.12444 35048 ft 470 kts 240°
2026-05-07 11:24 49.09675 2.03764 35045 ft 470 kts 242°
2026-05-07 11:24 49.06886 1.94757 34957 ft 470 kts 245°
2026-05-07 11:25 49.04223 1.85779 35041 ft 459 kts 246°
2026-05-07 11:25 49.01561 1.76885 35053 ft 461 kts 245°
2026-05-07 11:26 48.98885 1.68031 35056 ft 462 kts 245°
2026-05-07 11:26 48.96192 1.59173 35058 ft 463 kts 245°
2026-05-07 11:27 48.93931 1.51758 35056 ft 463 kts 245°
2026-05-07 11:27 48.91217 1.42884 35058 ft 463 kts 245°
2026-05-07 11:28 48.88487 1.33990 35058 ft 463 kts 245°
2026-05-07 11:28 48.85763 1.25147 35055 ft 463 kts 245°
2026-05-07 11:29 48.83029 1.16302 35059 ft 462 kts 245°
2026-05-07 11:29 48.80297 1.07495 35057 ft 462 kts 245°
2026-05-07 11:30 48.77546 0.98652 35062 ft 461 kts 245°
2026-05-07 11:30 48.74798 0.89879 35060 ft 461 kts 243°
2026-05-07 11:31 48.71583 0.81494 35062 ft 461 kts 238°
2026-05-07 11:31 48.68212 0.73280 35057 ft 461 kts 238°
2026-05-07 11:32 48.63162 0.60923 35059 ft 461 kts 238°
2026-05-07 11:33 48.59788 0.52646 35061 ft 461 kts 238°
2026-05-07 11:33 48.56433 0.44436 35058 ft 461 kts 238°
2026-05-07 11:34 48.53045 0.36172 35062 ft 461 kts 238°
2026-05-07 11:34 48.49679 0.27989 35060 ft 461 kts 238°
2026-05-07 11:35 48.46281 0.19754 35059 ft 461 kts 238°
2026-05-07 11:35 48.42892 0.11563 35062 ft 461 kts 238°
2026-05-07 11:36 48.39510 0.03412 35064 ft 461 kts 238°
2026-05-07 11:36 48.36099 -0.04716 35060 ft 460 kts 236°
2026-05-07 11:37 48.32276 -0.12478 35062 ft 460 kts 233°
2026-05-07 11:37 48.28433 -0.20115 35056 ft 460 kts 233°
2026-05-07 11:38 48.24572 -0.27831 35059 ft 460 kts 233°
2026-05-07 11:38 48.20703 -0.35423 35058 ft 460 kts 232°
2026-05-07 11:39 48.16780 -0.43069 35052 ft 460 kts 232°
2026-05-07 11:39 48.12888 -0.50650 35053 ft 460 kts 232°
2026-05-07 11:40 48.08996 -0.58221 35050 ft 460 kts 232°
2026-05-07 11:40 48.05077 -0.65825 35047 ft 460 kts 232°
2026-05-07 11:41 48.01171 -0.73384 35049 ft 460 kts 232°
2026-05-07 11:41 47.97269 -0.80912 35049 ft 460 kts 232°
2026-05-07 11:42 47.93339 -0.88472 35052 ft 460 kts 232°
2026-05-07 11:42 47.89406 -0.96020 35048 ft 460 kts 232°
2026-05-07 11:43 47.85495 -1.03503 35045 ft 460 kts 232°
2026-05-07 11:43 47.81545 -1.11042 35038 ft 460 kts 232°
2026-05-07 11:44 47.77620 -1.18510 35046 ft 460 kts 232°
2026-05-07 11:44 47.73661 -1.26023 35036 ft 460 kts 232°
2026-05-07 11:45 47.69728 -1.33468 35027 ft 460 kts 232°
2026-05-07 11:45 47.65780 -1.40922 35024 ft 460 kts 231°
2026-05-07 11:46 47.61810 -1.48398 35021 ft 460 kts 231°
2026-05-07 11:46 47.57733 -1.55642 35019 ft 460 kts 228°
2026-05-07 11:47 47.53427 -1.62672 35024 ft 460 kts 227°
2026-05-07 11:47 47.49240 -1.69490 35010 ft 460 kts 228°
2026-05-07 11:48 47.44937 -1.76528 35008 ft 460 kts 228°
2026-05-07 11:48 47.40672 -1.83501 35014 ft 459 kts 227°
2026-05-07 11:49 47.36306 -1.90415 35021 ft 459 kts 223°
2026-05-07 11:49 47.31306 -1.96227 35010 ft 459 kts 213°
2026-05-07 11:50 47.25862 -2.01066 35021 ft 459 kts 211°
2026-05-07 11:50 47.20377 -2.05892 35020 ft 458 kts 211°
2026-05-07 11:51 47.14907 -2.10740 35018 ft 458 kts 212°
2026-05-07 11:51 47.09461 -2.15579 35017 ft 458 kts 212°
2026-05-07 11:52 47.03996 -2.20425 35014 ft 458 kts 212°
2026-05-07 11:52 46.98557 -2.25236 35014 ft 457 kts 212°
2026-05-07 11:53 46.93118 -2.30035 35015 ft 457 kts 211°
2026-05-07 11:53 46.87692 -2.34811 35017 ft 456 kts 211°
2026-05-07 11:54 46.82224 -2.39613 35022 ft 456 kts 211°
2026-05-07 11:54 46.76807 -2.44364 35021 ft 456 kts 211°
2026-05-07 11:55 46.71344 -2.49146 35024 ft 456 kts 211°
2026-05-07 11:55 46.65926 -2.53879 35020 ft 456 kts 211°
2026-05-07 11:56 46.60458 -2.58643 35021 ft 456 kts 211°
2026-05-07 11:56 46.55040 -2.63353 35021 ft 456 kts 211°
2026-05-07 11:57 46.49574 -2.68093 35023 ft 456 kts 211°
2026-05-07 11:57 46.44145 -2.72790 35020 ft 456 kts 211°
2026-05-07 11:58 46.38706 -2.77486 35019 ft 456 kts 211°
2026-05-07 11:58 46.33236 -2.82198 35024 ft 456 kts 211°
2026-05-07 11:59 46.27781 -2.86916 35020 ft 456 kts 213°
2026-05-07 11:59 46.22765 -2.92457 35029 ft 456 kts 220°
2026-05-07 12:00 46.17942 -2.98419 35024 ft 456 kts 220°
2026-05-07 12:00 46.13129 -3.04328 35019 ft 456 kts 220°
2026-05-07 12:01 46.08263 -3.10257 35020 ft 456 kts 220°
2026-05-07 12:01 46.03426 -3.16124 35017 ft 456 kts 220°
2026-05-07 12:02 45.98577 -3.21989 35017 ft 456 kts 220°
2026-05-07 12:02 45.93733 -3.27837 35016 ft 456 kts 219°
2026-05-07 12:03 45.88850 -3.33717 35012 ft 456 kts 219°
2026-05-07 12:03 45.83999 -3.39546 35013 ft 456 kts 219°
2026-05-07 12:04 45.79136 -3.45375 35012 ft 456 kts 219°
2026-05-07 12:04 45.74242 -3.51228 35009 ft 457 kts 219°
2026-05-07 12:05 45.69380 -3.57028 35008 ft 457 kts 219°
2026-05-07 12:05 45.64496 -3.62841 35008 ft 457 kts 219°
2026-05-07 12:06 45.59594 -3.68662 35005 ft 457 kts 219°
2026-05-07 12:06 45.54704 -3.74455 35005 ft 457 kts 219°
2026-05-07 12:07 45.49833 -3.80213 35003 ft 457 kts 219°
2026-05-07 12:07 45.44918 -3.86009 35002 ft 457 kts 219°
2026-05-07 12:08 45.40000 -3.91794 35000 ft 458 kts 219°
2026-05-07 12:08 45.35111 -3.97532 34999 ft 458 kts 219°
2026-05-07 12:09 45.30181 -4.03304 34994 ft 458 kts 219°
2026-05-07 12:09 45.25267 -4.09045 34995 ft 458 kts 219°
2026-05-07 12:10 45.20346 -4.14781 34992 ft 459 kts 219°
2026-05-07 12:10 45.15424 -4.20504 34989 ft 459 kts 219°
2026-05-07 12:11 45.10470 -4.26252 34985 ft 459 kts 219°
2026-05-07 12:11 45.05548 -4.31950 34988 ft 459 kts 219°
2026-05-07 12:12 45.00608 -4.37654 34985 ft 459 kts 219°
2026-05-07 12:12 44.96478 -4.42414 34984 ft 460 kts 219°
2026-05-07 12:13 44.91525 -4.48110 34978 ft 460 kts 219°
2026-05-07 12:13 44.86537 -4.53833 34982 ft 460 kts 219°
2026-05-07 12:14 44.81583 -4.59503 34973 ft 461 kts 219°
2026-05-07 12:14 44.76591 -4.65206 34976 ft 461 kts 219°
2026-05-07 12:15 44.71624 -4.70865 34974 ft 461 kts 219°
2026-05-07 12:15 44.66611 -4.76566 34959 ft 462 kts 219°
2026-05-07 12:16 44.61630 -4.82215 34966 ft 462 kts 219°
2026-05-07 12:16 44.56646 -4.87859 34963 ft 462 kts 219°
2026-05-07 12:17 44.51637 -4.93513 34957 ft 462 kts 218°
2026-05-07 12:17 44.46319 -4.98576 34957 ft 462 kts 212°
2026-05-07 12:18 44.40838 -5.03305 34955 ft 462 kts 212°
2026-05-07 12:18 44.35394 -5.08005 34953 ft 462 kts 212°
2026-05-07 12:19 44.29928 -5.12747 34947 ft 462 kts 212°
2026-05-07 12:19 44.24485 -5.17474 34944 ft 463 kts 212°
2026-05-07 12:20 44.19011 -5.22219 34944 ft 463 kts 212°
2026-05-07 12:20 44.13554 -5.26939 34940 ft 463 kts 212°
2026-05-07 12:21 44.08060 -5.31679 34933 ft 463 kts 212°
2026-05-07 12:21 44.02564 -5.36410 34934 ft 464 kts 212°
2026-05-07 12:22 43.97093 -5.41109 34926 ft 465 kts 213°
2026-05-07 12:22 43.91576 -5.45838 34926 ft 466 kts 213°
2026-05-07 12:23 43.86046 -5.50566 34920 ft 466 kts 213°
2026-05-07 12:23 43.80539 -5.55265 34918 ft 467 kts 212°
2026-05-07 12:24 43.74994 -5.59986 34915 ft 468 kts 213°
2026-05-07 12:24 43.69476 -5.64675 34911 ft 468 kts 212°
2026-05-07 12:25 43.63908 -5.69395 34911 ft 470 kts 213°
2026-05-07 12:25 43.58304 -5.74135 34912 ft 471 kts 213°
2026-05-07 12:26 43.52718 -5.78848 34913 ft 473 kts 213°
2026-05-07 12:26 43.47116 -5.83565 34911 ft 474 kts 213°
2026-05-07 12:27 43.41465 -5.88315 34909 ft 475 kts 213°
2026-05-07 12:27 43.35849 -5.93023 34908 ft 475 kts 213°
2026-05-07 12:28 43.30178 -5.97767 34901 ft 476 kts 213°
2026-05-07 12:28 43.24525 -6.02485 34891 ft 476 kts 213°
2026-05-07 12:29 43.18849 -6.07214 34890 ft 477 kts 213°
2026-05-07 12:29 43.13200 -6.11907 34886 ft 477 kts 213°
2026-05-07 12:30 43.07494 -6.16636 34881 ft 478 kts 213°